A/2019 C1

Japanese version
Home page
Updated on March 11, 2019

---------------------------------------------------------------------

* Profile

Discovery Date February 5, 2019
Magnitude 17.75 mag
Discoverer ATLAS-MLO (Mauna Loa)

* Orbital Elements

Epoch 2020 Apr. 21.0 TT = JDT 2458960.5
T 2020 May 5.06235 TT                                   MPCW
q   6.5846669            (2000.0)            P               Q
z  +0.0013525      Peri.  319.11107     -0.92199987     -0.22503178
 +/-0.0001049      Node   212.40105     +0.19160135     -0.97231537
e   0.9910942      Incl.   36.01615     -0.33645975     +0.06295651
H  10.0
From 110 observations 2019 Jan. 14-Feb. 26, mean residual 0".4.

* Magnitudes Graph

        H = 10.0  G = 0.15

---------------------------------------------------------------------

The orbital elements are published on M.P.E.C. 2019-D42.
The magnitudes graphs are made with Comet for Windows.

---------------------------------------------------------------------

Copyright(C) Seiichi Yoshida (comet@aerith.net). All rights reserved.